Weather History for KMWM - October, 2014

Change the Weather History Date:

Saturday, October 11, 2014

  Actual Average Record
Temperature  
Mean Temperature 42 °F -  
Max Temperature 57 °F 63 °F 85 °F (1976)
Min Temperature 26 °F 38 °F 20 °F (1987)
Degree Days  
Heating Degree Days 24    
Moisture  
Dew Point 30 °F    
Average Humidity 67    
Maximum Humidity 100    
Minimum Humidity 36    
Precipitation  
Precipitation 0.00 in - - ()
Sea Level Pressure  
Sea Level Pressure 30.14 in    
Wind  
Wind Speed 3 mph (SSE)    
Max Wind Speed 12 mph    
Max Gust Speed 18 mph    
Visibility 10 miles    
Events      
Averages and records for this station are not official NWS values.
T = Trace of Precipitation, MM = Missing Value Source: NWS Daily Summary

Daily Weather History Graph

Daily Weather History Graph

Search for Another Location

Airport or City:

Trip Planner

Search our weather history database for the weather conditions in past years. The results will help you decide how hot, cold, wet, or windy it might be!

Date:

Astronomy

Oct. 11, 2014 Rise Set
Actual Time 7:30 AM CDT 6:43 PM CDT
Civil Twilight 7:01 AM CDT 7:12 PM CDT
Nautical Twilight 6:27 AM CDT 7:45 PM CDT
Astronomical Twilight 5:54 AM CDT 8:19 PM CDT
Moon 9:05 PM CDT (10/11) 11:00 AM CDT (10/11)
Length of Visible Light 12h 11m
Length of Day
11h 13m
Waning Gibbous, 87% of the Moon is Illuminated
Oct 11
Waning Gibbous
Oct 15
Last Quarter
Oct 23
New
Oct 30
First Quarter
Nov 6
Full

Hourly Weather History & Observations

Time (CDT) Temp. Windchill Dew Point Humidity Pressure Visibility Wind Dir Wind Speed Gust Speed Precip Events Conditions
12:13 AM 32.0 °F - 28.4 °F 87% 30.22 in 10.0 mi Calm Calm - N/A   Clear
12:34 AM 30.2 °F - 26.6 °F 86% 30.22 in 10.0 mi Calm Calm - N/A   Clear
12:53 AM 30.2 °F - 26.6 °F 86% 30.22 in 10.0 mi Calm Calm - N/A   Clear
1:13 AM 28.4 °F - 26.6 °F 93% 30.23 in 10.0 mi Calm Calm - N/A   Clear
1:34 AM 28.4 °F - 26.6 °F 93% 30.23 in 10.0 mi Calm Calm - N/A   Clear
1:53 AM 28.4 °F - 26.6 °F 93% 30.23 in 10.0 mi Calm Calm - N/A   Clear
2:13 AM 30.2 °F - 28.4 °F 93% 30.22 in 10.0 mi Calm Calm - N/A   Clear
2:34 AM 28.4 °F - 26.6 °F 93% 30.22 in 10.0 mi Calm Calm - N/A   Clear
2:53 AM 28.4 °F - 26.6 °F 93% 30.22 in 10.0 mi Calm Calm - N/A   Clear
3:13 AM 28.4 °F - 26.6 °F 93% 30.22 in 10.0 mi Calm Calm - N/A   Clear
3:34 AM 26.6 °F - 24.8 °F 93% 30.21 in 10.0 mi Calm Calm - N/A   Clear
3:53 AM 28.4 °F - 26.6 °F 93% 30.21 in 10.0 mi Calm Calm - N/A   Clear
4:13 AM 28.4 °F - 26.6 °F 93% 30.21 in 10.0 mi Calm Calm - N/A   Clear
4:34 AM 28.4 °F - 24.8 °F 86% 30.21 in 10.0 mi Calm Calm - N/A   Clear
4:53 AM 26.6 °F - 24.8 °F 93% 30.21 in 10.0 mi Calm Calm - N/A   Clear
5:14 AM 28.4 °F - 26.6 °F 93% 30.21 in 10.0 mi Calm Calm - N/A   Clear
5:33 AM 28.4 °F - 26.6 °F 93% 30.21 in 10.0 mi Calm Calm - N/A   Clear
5:53 AM 26.6 °F - 26.6 °F 100% 30.21 in 10.0 mi Calm Calm - N/A   Clear
6:14 AM 26.6 °F - 24.8 °F 93% 30.21 in 10.0 mi Calm Calm - N/A   Clear
6:33 AM 26.6 °F - 24.8 °F 93% 30.22 in 10.0 mi Calm Calm - N/A   Clear
6:53 AM 26.6 °F - 26.6 °F 100% 30.22 in 10.0 mi Calm Calm - N/A   Clear
7:14 AM 26.6 °F - 24.8 °F 93% 30.22 in 10.0 mi Calm Calm - N/A   Clear
7:33 AM 26.6 °F - 26.6 °F 100% 30.22 in 10.0 mi Calm Calm - N/A   Clear
7:53 AM 26.6 °F - 24.8 °F 93% 30.22 in 10.0 mi Calm Calm - N/A   Clear
8:14 AM 26.6 °F - 26.6 °F 100% 30.22 in 10.0 mi Calm Calm - N/A   Clear
8:33 AM 30.2 °F - 28.4 °F 93% 30.22 in 10.0 mi Calm Calm - N/A   Clear
8:53 AM 33.8 °F - 32.0 °F 93% 30.23 in 10.0 mi Calm Calm - N/A   Clear
9:13 AM 39.2 °F - 35.6 °F 87% 30.23 in 10.0 mi Calm Calm - N/A   Clear
9:33 AM 44.6 °F - 35.6 °F 71% 30.23 in 10.0 mi Calm Calm - N/A   Clear
9:54 AM 46.4 °F 43.5 °F 33.8 °F 62% 30.23 in 10.0 mi SSE 5.8 mph - N/A   Clear
10:13 AM 48.2 °F - 35.6 °F 62% 30.23 in 10.0 mi SSE 4.6 mph - N/A   Clear
10:33 AM 48.2 °F - 35.6 °F 62% 30.23 in 10.0 mi SSE 5.8 mph - N/A   Clear
10:54 AM 51.8 °F - 33.8 °F 50% 30.22 in 10.0 mi SSE 9.2 mph - N/A   Clear
11:13 AM 53.6 °F - 32.0 °F 44% 30.22 in 10.0 mi SSE 10.4 mph - N/A   Clear
11:33 AM 53.6 °F - 32.0 °F 44% 30.21 in 10.0 mi SSE 8.1 mph - N/A   Clear
11:54 AM 53.6 °F - 30.2 °F 41% 30.21 in 10.0 mi South 9.2 mph 16.1 mph N/A   Clear
12:13 PM 53.6 °F - 30.2 °F 41% 30.20 in 10.0 mi South 6.9 mph - N/A   Clear
12:33 PM 55.4 °F - 30.2 °F 38% 30.19 in 10.0 mi SSW 9.2 mph 18.4 mph N/A   Clear
12:53 PM 55.4 °F - 30.2 °F 38% 30.18 in 10.0 mi SSW 11.5 mph - N/A   Clear
1:13 PM 55.4 °F - 30.2 °F 38% 30.18 in 10.0 mi South 8.1 mph - N/A   Clear
1:33 PM 55.4 °F - 30.2 °F 38% 30.16 in 10.0 mi South 5.8 mph - N/A   Clear
1:53 PM 55.4 °F - 30.2 °F 38% 30.15 in 10.0 mi South 9.2 mph - N/A   Clear
2:13 PM 55.4 °F - 30.2 °F 38% 30.14 in 10.0 mi South 10.4 mph - N/A   Clear
2:34 PM 57.2 °F - 30.2 °F 36% 30.13 in 10.0 mi South 8.1 mph - N/A   Clear
2:53 PM 57.2 °F - 30.2 °F 36% 30.12 in 10.0 mi South 9.2 mph - N/A   Clear
3:13 PM 57.2 °F - 30.2 °F 36% 30.11 in 10.0 mi SSE 10.4 mph - N/A   Clear
3:34 PM 57.2 °F - 30.2 °F 36% 30.10 in 10.0 mi SSE 8.1 mph - N/A   Clear
3:53 PM 57.2 °F - 32.0 °F 38% 30.09 in 10.0 mi South 8.1 mph - N/A   Clear
4:13 PM 57.2 °F - 30.2 °F 36% 30.08 in 10.0 mi SE 10.4 mph 16.1 mph N/A   Clear
4:34 PM 57.2 °F - 30.2 °F 36% 30.06 in 10.0 mi SSE 10.4 mph - N/A   Clear
4:53 PM 57.2 °F - 30.2 °F 36% 30.06 in 10.0 mi SSE 10.4 mph - N/A   Clear
5:13 PM 57.2 °F - 30.2 °F 36% 30.05 in 10.0 mi SSE 9.2 mph - N/A   Clear
5:33 PM 55.4 °F - 30.2 °F 38% 30.05 in 10.0 mi SSE 8.1 mph - N/A   Clear
5:53 PM 55.4 °F - 32.0 °F 41% 30.04 in 10.0 mi SSE 9.2 mph - N/A   Clear
6:13 PM 55.4 °F - 32.0 °F 41% 30.04 in 10.0 mi SSE 9.2 mph - N/A   Clear
6:33 PM 53.6 °F - 33.8 °F 47% 30.04 in 10.0 mi SSE 8.1 mph - N/A   Clear
6:54 PM 50.0 °F - 33.8 °F 54% 30.03 in 10.0 mi SSE 6.9 mph - N/A   Clear
7:13 PM 48.2 °F - 33.8 °F 58% 30.02 in 10.0 mi SSE 6.9 mph - N/A   Clear
7:33 PM 48.2 °F - 33.8 °F 58% 30.02 in 10.0 mi SSE 6.9 mph - N/A   Clear
7:54 PM 46.4 °F 42.4 °F 33.8 °F 62% 30.02 in 10.0 mi SSE 8.1 mph - N/A   Clear
8:13 PM 46.4 °F 42.9 °F 33.8 °F 62% 30.01 in 10.0 mi SSE 6.9 mph - N/A   Clear
8:33 PM 46.4 °F 42.4 °F 33.8 °F 62% 30.00 in 10.0 mi SSE 8.1 mph - N/A   Clear
8:54 PM 46.4 °F 42.9 °F 33.8 °F 62% 30.00 in 10.0 mi SSE 6.9 mph - N/A   Clear
9:13 PM 46.4 °F 42.4 °F 33.8 °F 62% 29.99 in 10.0 mi SSE 8.1 mph - N/A   Clear
9:54 PM 46.4 °F 41.5 °F 33.8 °F 62% 29.99 in 10.0 mi SSE 10.4 mph - N/A   Clear
10:13 PM 46.4 °F 41.5 °F 33.8 °F 62% 29.98 in 10.0 mi SSE 10.4 mph - N/A   Clear
10:33 PM 46.4 °F 41.5 °F 33.8 °F 62% 29.97 in 10.0 mi SSE 10.4 mph - N/A   Clear
10:54 PM 46.4 °F 42.4 °F 33.8 °F 62% 29.97 in 10.0 mi SSE 8.1 mph - N/A   Clear
11:13 PM 44.6 °F 41.4 °F 35.6 °F 71% 29.96 in 10.0 mi South 5.8 mph - N/A   Clear
11:33 PM 44.6 °F 40.2 °F 35.6 °F 71% 29.95 in 10.0 mi South 8.1 mph - N/A   Clear
11:54 PM 46.4 °F 41.5 °F 35.6 °F 66% 29.95 in 10.0 mi South 10.4 mph - N/A   Clear